INTELSAT 33E DEB, 64397

Orbit data source: Space-Track

INTELSAT 33E DEB, 64397 is space debris in GEO originally from a launch on Wed, 24 Aug 2016 UTC launched from the French Guiana (FRGUI). Debris objects in space refer to the collection of defunct objects orbiting the Earth. Examples of debris include non-operational satellites, rocket bodies, and fragments generated from explosions, collisions, or faulty payload assembly.

Not visible in the next 10 days
Identifier
64397, 2016-053AB
Orbit
GEO
Country
Flag of USUS / ITSO
Related business
Manufacturer
Boeing/ES
Mission
Spacecraft
Bus & Motor
Unknown
Mass
Unknown
Launch date (UTC)
2016-08-24 (10 years ago)
Launch vehicle
Unknown
Launch site
French Guiana (FRGUI)
Object type
Payload
Rocket body
Debris
Shape & HBR
Unknown shape, 1.1 m
Radar Cross Section
RCS unknown

Expand to show TLE details & history
Last TLE update: 1 day ago

TLE from 1 day ago
0 INTELSAT 33E DEB
1 64397U 16053AB  26165.14729673 -.00000295  00000-0  00000-0 0  9990
2 64397   1.5345  80.5684 0049348  89.6191 269.9205  0.99473062  5875
Epoch: 2026-06-14T03:32Z
TLE epoch observation values (Epoch: 2026-06-14T03:32:06.437Z)
Latitude
-0°
Longitude
124.06476°
Altitude
36,012.83 km
Speed
3.066 km/s
True Right ascension
05h 18m 10s
True Declination
0° 00' 00"
Sunlit
Object was in daylight at epoch
Visualization orbit readout
Latitude
Unknown
Longitude
Unknown
Altitude
Unknown
Speed
Unknown
Apparent Right ascension
Unknown
Apparent Declination
Unknown
Sunlit
N/A
Visualization observer readout
Local Sidereal Time
01:38:53
Azimuth
Unknown
Elevation
Unknown
Doppler factor
Unknown
Orbital elements
Apogee altitude
36,222.259 km
Perigee altitude
35,803.875 km
Semi-major axis
42,391.204 km
Eccentricity
0.00493
Inclination
1.5345°
RAAN
80.5684°
Arg. of periapsis
89.6191°
True anomaly
269.35503°
Mean anomaly
269.9205°
Eccentric anomaly
269.63776°
Mean motion
0.24867 °/min
Orbital period
1,447.68 mins
BSTAR
0
Loading maneuver chart data...
Computing Atmospheric mass density...
Loading historical data...
Loading historical data...
Loading historical data...
Loading historical data...
Loading historical data...
Loading historical data...
Loading historical data...

Documentation

Showing up to 5 results
|